TimeEDT,TemperatureF,Dew PointF,Humidity,Sea Level PressureIn,VisibilityMPH,Wind Direction,Wind SpeedMPH,Gust SpeedMPH,PrecipitationIn,Events,Conditions,WindDirDegrees,DateUTC
12:54 AM,46.9,37.0,68,30.10,10.0,WNW,10.4,-,N/A,,Overcast,300,2013-05-25 04:54:00
1:54 AM,46.9,36.0,66,30.09,10.0,NW,11.5,-,N/A,,Overcast,310,2013-05-25 05:54:00
2:54 AM,46.0,35.1,66,30.08,10.0,NW,10.4,-,N/A,,Overcast,310,2013-05-25 06:54:00
3:54 AM,44.1,36.0,73,30.09,10.0,WNW,8.1,-,N/A,,Overcast,300,2013-05-25 07:54:00
4:54 AM,43.0,36.0,76,30.09,10.0,WNW,10.4,-,N/A,,Scattered Clouds,300,2013-05-25 08:54:00
5:54 AM,43.0,36.0,76,30.10,10.0,WNW,10.4,-,N/A,,Mostly Cloudy,300,2013-05-25 09:54:00
6:54 AM,43.0,36.0,76,30.11,10.0,NW,10.4,-,N/A,,Overcast,310,2013-05-25 10:54:00
7:54 AM,46.0,37.0,71,30.11,10.0,NW,11.5,-,N/A,,Mostly Cloudy,310,2013-05-25 11:54:00
8:54 AM,48.0,37.0,66,30.12,10.0,NW,12.7,19.6,N/A,,Mostly Cloudy,310,2013-05-25 12:54:00
9:54 AM,48.9,36.0,61,30.12,10.0,NW,11.5,-,N/A,,Mostly Cloudy,320,2013-05-25 13:54:00
10:54 AM,48.9,36.0,61,30.12,10.0,NW,16.1,21.9,N/A,,Mostly Cloudy,320,2013-05-25 14:54:00
11:54 AM,50.0,36.0,59,30.13,10.0,NW,15.0,21.9,N/A,,Mostly Cloudy,320,2013-05-25 15:54:00
12:54 PM,53.1,37.0,55,30.12,10.0,NW,16.1,24.2,N/A,,Mostly Cloudy,320,2013-05-25 16:54:00
1:54 PM,54.0,35.1,49,30.10,10.0,NW,20.7,32.2,N/A,,Mostly Cloudy,310,2013-05-25 17:54:00
2:54 PM,55.0,34.0,45,30.10,10.0,NW,17.3,33.4,N/A,,Mostly Cloudy,320,2013-05-25 18:54:00
3:54 PM,55.0,34.0,45,30.10,10.0,WNW,16.1,27.6,N/A,,Mostly Cloudy,300,2013-05-25 19:54:00
4:54 PM,55.0,34.0,45,30.09,10.0,NW,19.6,29.9,N/A,,Mostly Cloudy,320,2013-05-25 20:54:00
5:54 PM,55.0,34.0,45,30.08,10.0,WNW,19.6,25.3,N/A,,Mostly Cloudy,300,2013-05-25 21:54:00
6:54 PM,54.0,35.1,49,30.08,10.0,NW,15.0,21.9,N/A,,Mostly Cloudy,310,2013-05-25 22:54:00
7:54 PM,54.0,34.0,47,30.09,10.0,WNW,11.5,21.9,N/A,,Mostly Cloudy,300,2013-05-25 23:54:00
8:54 PM,52.0,35.1,53,30.08,10.0,WNW,11.5,-,N/A,,Mostly Cloudy,300,2013-05-26 00:54:00
9:54 PM,50.0,37.0,61,30.12,10.0,NNE,4.6,-,N/A,,Mostly Cloudy,20,2013-05-26 01:54:00
10:54 PM,48.0,37.0,66,30.12,10.0,NNE,5.8,-,0.00,Rain,Light Rain,20,2013-05-26 02:54:00
11:54 PM,48.0,37.0,66,30.10,10.0,WNW,4.6,-,0.00,Rain,Light Rain,300,2013-05-26 03:54:00